Albano Laziale, Italy

8:03 AM CET on March 19, 2019 (GMT +0100)
Albano Laziale

Weather History for 16239 - October, 2001

Change the Weather History Date:

Thursday, October 11, 2001

  Actual Average Record
Temperature  
Mean Temperature 70 °F -  
Max Temperature 80 °F 67 °F - ()
Min Temperature 60 °F 48 °F - ()
Cooling Degree Days 5    
Growing Degree Days 20 (Base 50)    
Moisture  
Dew Point 64 °F    
Average Humidity 82    
Maximum Humidity 94    
Minimum Humidity 51    
Precipitation  
Precipitation 0.00 in 0.14 in - ()
Sea Level Pressure  
Sea Level Pressure 30.29 in    
Wind  
Wind Speed 4 mph ()    
Max Wind Speed 10 mph    
Max Gust Speed -    
Visibility 6.1 miles    
Events      
T = Trace of Precipitation, MM = Missing Value Source: Averaged Metar Reports

Daily Weather History Graph

Daily Weather History Graph

Search for Another Location

Airport or City:

Astronomy

Oct. 11, 2001 Rise Set
Actual Time 7:17 AM CEST 6:34 PM CEST
Civil Twilight 6:49 AM CEST 7:02 PM CEST
Nautical Twilight 6:17 AM CEST 7:34 PM CEST
Astronomical Twilight 5:44 AM CEST 8:07 PM CEST
Moon 12:22 AM CEST (10/11) 3:49 PM CEST (10/11)
Length of Visible Light 12h 13m
Length of Day
11h 17m
Last Quarter, 36% of the Moon is Illuminated
Oct 11
Last Quarter
Oct 16
New
Oct 24
First Quarter
Nov 1
Full
Nov 8
Last Quarter

Hourly Weather History & Observations

Time (CEST) Temp. Heat Index Dew Point Humidity Pressure Visibility Wind Dir Wind Speed Gust Speed Precip Events Conditions
12:20 AM 66.2 °F - 64.4 °F 94% 30.33 in - Calm Calm - N/A   Clear
12:50 AM 66.2 °F - 64.4 °F 94% 30.33 in - Calm Calm - N/A   Clear
1:20 AM 66.2 °F - 64.4 °F 94% 30.33 in - ENE 2.3 mph - N/A   Clear
1:50 AM 66.2 °F - 64.4 °F 94% 30.33 in - Calm Calm - N/A   Clear
2:20 AM 64.4 °F - 62.6 °F 94% 30.30 in - ENE 3.5 mph - N/A   Clear
2:50 AM 64.4 °F - 62.6 °F 94% 30.30 in - NE 4.6 mph - N/A   Clear
3:20 AM 62.6 °F - 60.8 °F 94% 30.30 in - NNE 3.5 mph - N/A   Clear
3:50 AM 62.6 °F - 60.8 °F 94% 30.30 in - NNE 4.6 mph - N/A   Clear
4:20 AM 62.6 °F - 60.8 °F 94% 30.30 in - NNE 4.6 mph - N/A   Clear
4:50 AM 62.6 °F - 60.8 °F 94% 30.30 in - NE 3.5 mph - N/A   Clear
5:20 AM 62.6 °F - 60.8 °F 94% 30.30 in - NE 3.5 mph - N/A   Clear
5:50 AM 62.6 °F - 60.8 °F 94% 30.30 in - NE 5.8 mph - N/A   Clear
6:20 AM 60.8 °F - 59.0 °F 94% 30.30 in - NE 6.9 mph - N/A   Clear
6:50 AM 60.8 °F - 59.0 °F 94% 30.30 in - NE 5.8 mph - N/A   Clear
7:20 AM 60.8 °F - 59.0 °F 94% 30.30 in - NE 6.9 mph - N/A   Clear
7:50 AM 60.8 °F - 59.0 °F 94% 30.30 in 5.6 mi NE 5.8 mph - N/A   Partly Cloudy
8:20 AM 60.8 °F - 59.0 °F 94% 30.30 in - NE 5.8 mph - N/A   Clear
8:50 AM 62.6 °F - 60.8 °F 94% 30.33 in - NNE 5.8 mph - N/A   Clear
9:20 AM 62.6 °F - 60.8 °F 94% 30.33 in - NNE 5.8 mph - N/A   Clear
9:50 AM 64.4 °F - 62.6 °F 94% 30.33 in - North 3.5 mph - N/A   Clear
10:20 AM 68.0 °F - 64.4 °F 88% 30.33 in - North 4.6 mph - N/A   Clear
10:50 AM 68.0 °F - 64.4 °F 88% 30.33 in - North 3.5 mph - N/A   Clear
11:20 AM 71.6 °F - 66.2 °F 83% 30.33 in - North 2.3 mph - N/A   Clear
11:50 AM 73.4 °F - 66.2 °F 78% 30.33 in - NNE 6.9 mph - N/A   Clear
12:20 PM 75.2 °F - 66.2 °F 73% 30.33 in - North 4.6 mph - N/A   Clear
1:20 PM 77.0 °F - 64.4 °F 65% 30.33 in - NNW 4.6 mph - N/A   Clear
1:50 PM 78.8 °F - 66.2 °F 65% 30.30 in 6.2 mi NNW 9.2 mph - N/A   Partly Cloudy
2:20 PM 78.8 °F - 66.2 °F 65% 30.30 in 6.2 mi NNW 8.1 mph - N/A   Partly Cloudy
2:50 PM 80.6 °F 82.7 °F 66.2 °F 61% 30.30 in 6.2 mi NNW 8.1 mph - N/A   Partly Cloudy
3:20 PM 80.6 °F 81.8 °F 62.6 °F 54% 30.27 in - NNW 8.1 mph - N/A   Clear
3:50 PM 80.6 °F 81.5 °F 60.8 °F 51% 30.27 in - WNW 10.4 mph - N/A   Clear
4:20 PM 80.6 °F 82.7 °F 66.2 °F 61% 30.27 in 6.2 mi WNW 9.2 mph - N/A   Partly Cloudy
4:50 PM 80.6 °F 82.7 °F 66.2 °F 61% 30.27 in 6.2 mi WNW 9.2 mph - N/A   Partly Cloudy
5:20 PM 80.6 °F 82.7 °F 66.2 °F 61% 30.24 in 6.2 mi WSW 9.2 mph - N/A   Partly Cloudy
5:50 PM 80.6 °F 82.7 °F 66.2 °F 61% 30.24 in 6.2 mi West 8.1 mph - N/A   Partly Cloudy
6:20 PM 80.6 °F 83.9 °F 69.8 °F 70% 30.24 in - WNW 3.5 mph - N/A   Clear
6:50 PM 78.8 °F - 71.6 °F 78% 30.24 in - NNW 3.5 mph - N/A   Clear
7:20 PM 77.0 °F - 71.6 °F 83% 30.24 in - North 5.8 mph - N/A   Clear
7:50 PM 77.0 °F - 66.2 °F 69% 30.24 in - North 6.9 mph - N/A   Clear
8:20 PM 75.2 °F - 66.2 °F 73% 30.24 in - NNW 1.2 mph - N/A   Clear
8:50 PM 75.2 °F - 66.2 °F 73% 30.24 in - NNW 5.8 mph - N/A   Clear
9:20 PM 71.6 °F - 66.2 °F 83% 30.27 in - North 3.5 mph - N/A   Clear
9:50 PM 71.6 °F - 64.4 °F 78% 30.24 in - NE 4.6 mph - N/A   Clear
10:20 PM 69.8 °F - 64.4 °F 83% 30.27 in - NNE 4.6 mph - N/A   Clear
10:50 PM 69.8 °F - 66.2 °F 88% 30.27 in - NNE 5.8 mph - N/A   Clear
11:20 PM 69.8 °F - 66.2 °F 88% 30.27 in - NNE 4.6 mph - N/A   Clear
11:50 PM 69.8 °F - 66.2 °F 88% 30.27 in - NNE 3.5 mph - N/A   Clear